LKLN Weather Reports


time (UTC)temp
F
wind
direction
speed
knots
gust
knots
rain 1hr
in
rain 24hr
in
rain mn
in
humidity
%
barometer
mb
20260505222804 55 250 5.2 0.0 0.00 0.00 0.00 100 1007.0
20260505215804 55 250 4.3 0.0 0.00 0.00 0.00 100 1007.0
20260505212803 55 280 5.2 0.0 0.00 0.00 0.00 100 1007.0
20260505205804 55 270 5.2 0.0 0.00 0.00 0.00 100 1007.0
20260505202803 57 260 2.6 0.0 0.00 0.00 0.00 100 1007.0
20260505195804 55 0 1.7 0.0 0.00 0.00 0.00 100 1006.0
20260505192805 57 320 5.2 0.0 0.00 0.00 0.00 100 1006.0
20260505191318 57 0 4.3 0.0 0.00 0.00 0.00 100 1006.0
20260505185804 59 280 7.0 0.0 0.00 0.00 0.00 93 1005.0
20260505185018 59 270 7.8 0.0 0.00 0.00 0.00 93 1005.0
20260505184704 59 260 7.8 0.0 0.00 0.00 0.00 93 1005.0
20260505182904 63 200 12.2 0.0 0.00 0.00 0.00 82 1005.0
20260505181703 61 190 10.4 0.0 0.00 0.00 0.00 87 1005.0
20260505175805 63 40 5.2 0.0 0.00 0.00 0.00 77 1004.0
20260505172805 63 30 5.2 0.0 0.00 0.00 0.00 82 1004.0
20260505170517 66 100 2.6 0.0 0.00 0.00 0.00 68 1004.0
20260505165805 68 0 4.3 0.0 0.00 0.00 0.00 60 1004.0
20260505162804 72 360 6.1 0.0 0.00 0.00 0.00 46 1004.0
20260505152804 77 0 2.6 0.0 0.00 0.00 0.00 27 1004.0
20260505122804 75 110 4.3 0.0 0.00 0.00 0.00 36 1006.0
20260505115804 77 180 5.2 0.0 0.00 0.00 0.00 36 1006.0
20260505112804 75 0 2.6 0.0 0.00 0.00 0.00 38 1006.0
20260505095804 73 180 2.6 0.0 0.00 0.00 0.00 43 1007.0
20260505092803 72 0 0.9 0.0 0.00 0.00 0.00 46 1008.0
20260505085804 70 0 1.7 0.0 0.00 0.00 0.00 46 1008.0
20260505082804 68 0 1.7 0.0 0.00 0.00 0.00 49 1008.0
20260505075804 68 0 1.7 0.0 0.00 0.00 0.00 52 1008.0
20260505072803 66 0 0.9 0.0 0.00 0.00 0.00 52 1009.0
20260505065804 64 90 2.6 0.0 0.00 0.00 0.00 59 1009.0
20260505062805 63 80 4.3 0.0 0.00 0.00 0.00 63 1009.0
20260505055804 61 40 2.6 0.0 0.00 0.00 0.00 67 1009.0
20260505052804 59 0 1.7 0.0 0.00 0.00 0.00 72 1009.0
20260505035804 57 0 1.7 0.0 0.00 0.00 0.00 71 1009.0
20260505032804 57 0 0.9 0.0 0.00 0.00 0.00 71 1009.0
20260505025905 55 0 1.7 0.0 0.00 0.00 0.00 76 1009.0
20260505022804 55 0 0.0 0.0 0.00 0.00 0.00 76 1009.0
20260505015804 57 0 0.0 0.0 0.00 0.00 0.00 71 1010.0
20260505012804 57 0 0.0 0.0 0.00 0.00 0.00 67 1010.0
20260505005804 57 0 1.7 0.0 0.00 0.00 0.00 67 1010.0
20260505002805 59 280 0.9 0.0 0.00 0.00 0.00 62 1010.0
20260504235805 59 0 1.7 0.0 0.00 0.00 0.00 62 1010.0
20260504232805 63 10 2.6 0.0 0.00 0.00 0.00 55 1011.0
20260504225804 61 20 2.6 0.0 0.00 0.00 0.00 59 1011.0